TimeHST,TemperatureF,Dew PointF,Humidity,Sea Level PressureIn,VisibilityMPH,Wind Direction,Wind SpeedMPH,Gust SpeedMPH,PrecipitationIn,Events,Conditions,WindDirDegrees,DateUTC
12:16 AM,37.4,32.0,81,29.76,10.0,SE,16.1,-,N/A,,Overcast,140,2012-11-23 10:16:00
12:36 AM,37.4,33.8,87,29.75,10.0,SE,18.4,23.0,N/A,,Overcast,130,2012-11-23 10:36:00
12:56 AM,37.4,32.0,81,29.74,10.0,ESE,19.6,-,N/A,,Mostly Cloudy,110,2012-11-23 10:56:00
1:16 AM,37.4,33.8,87,29.73,9.0,ESE,17.3,24.2,N/A,,Overcast,120,2012-11-23 11:16:00
1:36 AM,37.4,33.8,87,29.72,9.0,ESE,21.9,-,N/A,,Overcast,110,2012-11-23 11:36:00
2:16 AM,37.4,33.8,87,29.71,10.0,ESE,18.4,25.3,N/A,,Overcast,110,2012-11-23 12:16:00
2:36 AM,37.4,33.8,87,29.70,9.0,ESE,19.6,27.6,N/A,,Overcast,120,2012-11-23 12:36:00
2:56 AM,37.4,33.8,87,29.69,10.0,ESE,20.7,29.9,N/A,,Overcast,110,2012-11-23 12:56:00
3:16 AM,37.4,33.8,87,29.68,10.0,ESE,15.0,-,N/A,,Overcast,120,2012-11-23 13:16:00
3:36 AM,37.4,33.8,87,29.68,8.0,ESE,17.3,23.0,N/A,,Overcast,120,2012-11-23 13:36:00
3:56 AM,37.4,35.6,93,29.67,7.0,ESE,13.8,20.7,N/A,,Overcast,120,2012-11-23 13:56:00
4:16 AM,37.4,35.6,93,29.67,9.0,ESE,17.3,-,N/A,,Overcast,120,2012-11-23 14:16:00
4:36 AM,37.4,33.8,87,29.66,10.0,ESE,20.7,-,N/A,,Overcast,110,2012-11-23 14:36:00
4:56 AM,37.4,35.6,93,29.65,6.0,ESE,20.7,27.6,N/A,,Overcast,110,2012-11-23 14:56:00
5:16 AM,39.2,35.6,87,29.64,7.0,East,17.3,-,N/A,,Overcast,100,2012-11-23 15:16:00
5:36 AM,39.2,35.6,87,29.64,7.0,ESE,21.9,-,N/A,,Overcast,110,2012-11-23 15:36:00
5:56 AM,39.2,35.6,87,29.63,7.0,ESE,19.6,28.8,N/A,,Overcast,110,2012-11-23 15:56:00
6:16 AM,39.2,35.6,87,29.63,10.0,ESE,18.4,-,N/A,,Overcast,120,2012-11-23 16:16:00
6:36 AM,39.2,35.6,87,29.63,10.0,SE,17.3,-,N/A,,Overcast,130,2012-11-23 16:36:00
6:56 AM,39.2,35.6,87,29.62,10.0,East,11.5,-,N/A,,Overcast,100,2012-11-23 16:56:00
7:16 AM,39.2,35.6,87,29.62,10.0,SE,12.7,-,N/A,,Mostly Cloudy,130,2012-11-23 17:16:00
7:36 AM,39.2,35.6,87,29.62,10.0,ESE,13.8,-,N/A,,Overcast,120,2012-11-23 17:36:00
7:56 AM,41.0,35.6,81,29.62,10.0,South,11.5,17.3,N/A,,Mostly Cloudy,170,2012-11-23 17:56:00
8:16 AM,41.0,33.8,76,29.62,10.0,SE,16.1,-,N/A,,Scattered Clouds,130,2012-11-23 18:16:00
8:36 AM,41.0,33.8,76,29.63,10.0,SSE,17.3,-,N/A,,Overcast,150,2012-11-23 18:36:00
8:56 AM,42.8,33.8,70,29.63,10.0,SSE,13.8,-,N/A,,Overcast,150,2012-11-23 18:56:00
9:16 AM,41.0,33.8,76,29.64,10.0,SSE,12.7,21.9,N/A,,Overcast,150,2012-11-23 19:16:00
9:36 AM,41.0,33.8,76,29.64,10.0,SE,17.3,-,N/A,,Mostly Cloudy,130,2012-11-23 19:36:00
9:56 AM,41.0,33.8,76,29.65,10.0,SE,15.0,-,N/A,,Scattered Clouds,130,2012-11-23 19:56:00
10:16 AM,42.8,33.8,70,29.66,10.0,SE,15.0,20.7,N/A,,Mostly Cloudy,130,2012-11-23 20:16:00
10:36 AM,41.0,33.8,76,29.66,10.0,ESE,11.5,-,N/A,,Mostly Cloudy,120,2012-11-23 20:36:00
10:56 AM,41.0,35.6,81,29.67,10.0,ESE,11.5,-,N/A,,Mostly Cloudy,120,2012-11-23 20:56:00
11:16 AM,41.0,35.6,81,29.67,8.0,SSE,8.1,-,N/A,,Overcast,150,2012-11-23 21:16:00
11:36 AM,41.0,35.6,81,29.68,9.0,ESE,11.5,-,N/A,,Overcast,110,2012-11-23 21:36:00
11:56 AM,41.0,35.6,81,29.68,10.0,ESE,13.8,-,N/A,,Overcast,110,2012-11-23 21:56:00
12:16 PM,41.0,35.6,81,29.68,10.0,ESE,8.1,-,N/A,,Mostly Cloudy,120,2012-11-23 22:16:00
12:36 PM,42.8,35.6,76,29.68,10.0,ESE,8.1,-,N/A,,Mostly Cloudy,120,2012-11-23 22:36:00
12:56 PM,42.8,35.6,76,29.68,10.0,SE,10.4,-,N/A,,Overcast,130,2012-11-23 22:56:00
1:16 PM,42.8,35.6,76,29.68,10.0,ESE,9.2,-,N/A,,Overcast,110,2012-11-23 23:16:00
1:36 PM,42.8,35.6,76,29.69,10.0,ESE,10.4,-,N/A,,Overcast,110,2012-11-23 23:36:00
1:56 PM,42.8,35.6,76,29.69,10.0,ESE,6.9,-,N/A,,Overcast,110,2012-11-23 23:56:00
2:16 PM,42.8,35.6,76,29.69,10.0,East,8.1,-,N/A,,Overcast,100,2012-11-24 00:16:00
2:36 PM,42.8,37.4,81,29.70,10.0,ESE,10.4,-,N/A,,Overcast,120,2012-11-24 00:36:00
2:56 PM,41.0,35.6,81,29.70,8.0,East,8.1,-,N/A,,Overcast,90,2012-11-24 00:56:00
3:16 PM,41.0,37.4,87,29.71,10.0,ENE,4.6,-,N/A,,Overcast,60,2012-11-24 01:16:00
3:36 PM,42.8,37.4,81,29.71,10.0,East,10.4,-,N/A,,Overcast,90,2012-11-24 01:36:00
3:56 PM,42.8,37.4,81,29.72,9.0,East,11.5,-,N/A,,Overcast,80,2012-11-24 01:56:00
4:16 PM,41.0,35.6,81,29.73,10.0,NE,6.9,-,N/A,,Overcast,50,2012-11-24 02:16:00
4:36 PM,41.0,37.4,87,29.74,10.0,ENE,6.9,-,N/A,,Overcast,70,2012-11-24 02:36:00
4:56 PM,41.0,37.4,87,29.75,10.0,ENE,13.8,-,N/A,,Mostly Cloudy,70,2012-11-24 02:56:00
5:16 PM,41.0,37.4,87,29.76,10.0,East,15.0,-,N/A,,Mostly Cloudy,80,2012-11-24 03:16:00
5:36 PM,39.2,35.6,87,29.78,10.0,East,13.8,-,N/A,,Partly Cloudy,90,2012-11-24 03:36:00
5:56 PM,39.2,37.4,93,29.78,10.0,East,18.4,-,N/A,,Mostly Cloudy,80,2012-11-24 03:56:00
6:16 PM,39.2,35.6,87,29.80,10.0,East,15.0,-,N/A,,Overcast,90,2012-11-24 04:16:00
6:36 PM,39.2,35.6,87,29.80,10.0,East,11.5,-,N/A,,Overcast,80,2012-11-24 04:36:00
6:56 PM,39.2,35.6,87,29.82,10.0,ENE,8.1,-,N/A,,Overcast,70,2012-11-24 04:56:00
7:16 PM,37.4,33.8,87,29.82,10.0,North,5.8,-,N/A,,Mostly Cloudy,10,2012-11-24 05:16:00
7:36 PM,39.2,37.4,93,29.83,8.0,East,9.2,-,N/A,,Overcast,80,2012-11-24 05:36:00
7:56 PM,39.2,37.4,93,29.84,10.0,East,11.5,-,N/A,,Overcast,80,2012-11-24 05:56:00
8:16 PM,39.2,37.4,93,29.85,10.0,NE,6.9,-,N/A,,Overcast,40,2012-11-24 06:16:00
8:36 PM,39.2,37.4,93,29.86,10.0,NE,5.8,-,N/A,,Overcast,40,2012-11-24 06:36:00
8:56 PM,39.2,37.4,93,29.86,10.0,NE,6.9,-,N/A,,Overcast,40,2012-11-24 06:56:00
9:16 PM,39.2,37.4,93,29.87,10.0,ENE,8.1,-,N/A,,Mostly Cloudy,60,2012-11-24 07:16:00
9:36 PM,39.2,37.4,93,29.88,10.0,ENE,9.2,-,N/A,,Overcast,60,2012-11-24 07:36:00
9:56 PM,39.2,35.6,87,29.89,10.0,ENE,4.6,-,N/A,,Overcast,60,2012-11-24 07:56:00
10:16 PM,37.4,35.6,93,29.90,10.0,North,5.8,-,N/A,,Overcast,360,2012-11-24 08:16:00
10:36 PM,37.4,35.6,93,29.91,10.0,NNW,6.9,-,N/A,,Overcast,340,2012-11-24 08:36:00
10:56 PM,37.4,37.4,100,29.91,10.0,NE,8.1,-,N/A,,Overcast,40,2012-11-24 08:56:00
11:16 PM,37.4,35.6,93,29.92,10.0,NE,6.9,-,N/A,,Overcast,40,2012-11-24 09:16:00
11:36 PM,37.4,33.8,87,29.93,10.0,NNW,4.6,-,N/A,,Overcast,330,2012-11-24 09:36:00
11:56 PM,37.4,33.8,87,29.94,10.0,Calm,Calm,-,N/A,,Overcast,0,2012-11-24 09:56:00